Previsão horária em Celinki

Hoje, 30 Julho, Sexta-feira

Tempo Temperatura Precipitação Vento Pressão Humidade
00:00 +21°C° 0 mm 1 m/s 738 mmHg 67%
01:00 +19°C° 0 mm 2 m/s 738 mmHg 71%
02:00 +18°C° 0 mm 2 m/s 738 mmHg 75%
03:00 +17°C° 0 mm 2 m/s 738 mmHg 77%
04:00 +17°C° 0 mm 2 m/s 738 mmHg 79%
05:00 +16°C° 0 mm 2 m/s 738 mmHg 82%
06:00 +18°C° 0 mm 2 m/s 738 mmHg 76%
07:00 +20°C° 0 mm 3 m/s 738 mmHg 70%
08:00 +22°C° 0 mm 3 m/s 738 mmHg 65%
09:00 +23°C° 0 mm 4 m/s 738 mmHg 58%
10:00 +26°C° 0 mm 4 m/s 738 mmHg 51%
11:00 +28°C° 0 mm 5 m/s 738 mmHg 44%
12:00 +28°C° 0 mm 5 m/s 737 mmHg 43%
13:00 +29°C° 0 mm 5 m/s 737 mmHg 42%
14:00 +30°C° 0 mm 5 m/s 737 mmHg 40%
15:00 +29°C° 0 mm 5 m/s 737 mmHg 42%
16:00 +29°C° 0 mm 5 m/s 736 mmHg 44%
17:00 +29°C° 0 mm 4 m/s 736 mmHg 45%
18:00 +28°C° 0 mm 3 m/s 736 mmHg 51%
19:00 +26°C° 0 mm 2 m/s 736 mmHg 56%
20:00 +25°C° 0 mm 1 m/s 736 mmHg 62%
21:00 +24°C° 0 mm 1 m/s 736 mmHg 65%
22:00 +23°C° 0 mm 1 m/s 736 mmHg 67%
23:00 +22°C° 0 mm 1 m/s 736 mmHg 70%

Amanhã, 31 Julho, Sábado

Tempo Temperatura Precipitação Vento Pressão Humidade
00:00 +21°C° 0 mm 1 m/s 736 mmHg 73%
01:00 +21°C° 0 mm 1 m/s 736 mmHg 76%
02:00 +20°C° 0 mm 1 m/s 736 mmHg 78%
03:00 +20°C° 0 mm 1 m/s 735 mmHg 80%
04:00 +20°C° 0 mm 1 m/s 735 mmHg 82%
05:00 +19°C° 0 mm 1 m/s 735 mmHg 83%
06:00 +21°C° 0 mm 1 m/s 735 mmHg 77%
07:00 +23°C° 0 mm 1 m/s 736 mmHg 71%
08:00 +25°C° 0 mm 1 m/s 736 mmHg 65%
09:00 +27°C° 0 mm 2 m/s 735 mmHg 58%
10:00 +29°C° 0 mm 2 m/s 735 mmHg 51%
11:00 +31°C° 0 mm 2 m/s 735 mmHg 44%
12:00 +30°C° 0 mm 2 m/s 735 mmHg 47%
13:00 +29°C° 0 mm 2 m/s 735 mmHg 51%
14:00 +28°C° 0 mm 2 m/s 734 mmHg 54%
15:00 +28°C° 0 mm 3 m/s 734 mmHg 57%
16:00 +27°C° 0 mm 4 m/s 734 mmHg 59%
17:00 +27°C° 0 mm 4 m/s 734 mmHg 61%
18:00 +25°C° 0.8 mm 4 m/s 734 mmHg 73%
19:00 +21°C° 0.8 mm 3 m/s 734 mmHg 84%
20:00 +19°C° 0.8 mm 2 m/s 735 mmHg 95%
21:00 +18°C° 0.1 mm 2 m/s 735 mmHg 96%
22:00 +18°C° 0.1 mm 2 m/s 736 mmHg 96%
23:00 +18°C° 0.1 mm 1 m/s 736 mmHg 97%

Depois de amanhã, 1 Agosto, Domingo

Tempo Temperatura Precipitação Vento Pressão Humidade
00:00 +17°C° 0 mm 2 m/s 736 mmHg 97%
01:00 +17°C° 0 mm 2 m/s 736 mmHg 97%
02:00 +17°C° 0 mm 2 m/s 736 mmHg 97%
03:00 +16°C° 0 mm 2 m/s 736 mmHg 97%
04:00 +16°C° 0 mm 2 m/s 736 mmHg 96%
05:00 +16°C° 0 mm 2 m/s 736 mmHg 96%
06:00 +17°C° 0 mm 2 m/s 736 mmHg 90%
07:00 +19°C° 0 mm 2 m/s 736 mmHg 84%
08:00 +22°C° 0 mm 1 m/s 736 mmHg 78%
09:00 +24°C° 0 mm 2 m/s 736 mmHg 69%
10:00 +25°C° 0 mm 2 m/s 736 mmHg 59%
11:00 +27°C° 0 mm 2 m/s 736 mmHg 49%
12:00 +28°C° 0.1 mm 3 m/s 735 mmHg 48%
13:00 +28°C° 0.1 mm 3 m/s 735 mmHg 47%
14:00 +29°C° 0.1 mm 4 m/s 735 mmHg 46%
15:00 +29°C° 0 mm 3 m/s 734 mmHg 47%
16:00 +30°C° 0 mm 3 m/s 734 mmHg 48%
17:00 +30°C° 0 mm 3 m/s 733 mmHg 50%
18:00 +28°C° 2.5 mm 4 m/s 733 mmHg 63%
19:00 +25°C° 2.5 mm 5 m/s 732 mmHg 75%
20:00 +21°C° 2.5 mm 5 m/s 731 mmHg 88%
21:00 +20°C° 1.9 mm 4 m/s 732 mmHg 91%
22:00 +19°C° 1.9 mm 3 m/s 733 mmHg 94%
23:00 +18°C° 1.9 mm 2 m/s 734 mmHg 96%

2 Agosto, Segunda-feira

Tempo Temperatura Precipitação Vento Pressão Humidade
00:00 +18°C° 0.2 mm 2 m/s 733 mmHg 97%
01:00 +18°C° 0.2 mm 2 m/s 733 mmHg 97%
02:00 +17°C° 0.2 mm 2 m/s 733 mmHg 97%
03:00 +17°C° 0.1 mm 3 m/s 733 mmHg 96%
04:00 +15°C° 0.1 mm 4 m/s 734 mmHg 96%
05:00 +15°C° 0.1 mm 4 m/s 734 mmHg 95%
06:00 +15°C° 0 mm 4 m/s 735 mmHg 94%
07:00 +14°C° 0 mm 4 m/s 735 mmHg 94%
08:00 +14°C° 0 mm 4 m/s 735 mmHg 93%
09:00 +15°C° 0 mm 4 m/s 736 mmHg 89%
10:00 +17°C° 0 mm 4 m/s 736 mmHg 85%
11:00 +18°C° 0 mm 4 m/s 737 mmHg 81%
12:00 +20°C° 0 mm 4 m/s 737 mmHg 72%
13:00 +21°C° 0 mm 4 m/s 737 mmHg 62%
14:00 +23°C° 0 mm 4 m/s 737 mmHg 53%
15:00 +23°C° 0 mm 4 m/s 737 mmHg 55%
16:00 +22°C° 0 mm 4 m/s 737 mmHg 57%
17:00 +22°C° 0 mm 4 m/s 737 mmHg 59%
18:00 +21°C° 0 mm 3 m/s 737 mmHg 62%
19:00 +20°C° 0 mm 3 m/s 737 mmHg 65%
20:00 +20°C° 0 mm 2 m/s 737 mmHg 68%
21:00 +19°C° 0 mm 2 m/s 738 mmHg 69%
22:00 +19°C° 0 mm 2 m/s 738 mmHg 70%
23:00 +18°C° 0 mm 2 m/s 738 mmHg 71%

3 Agosto, Terça-feira

Tempo Temperatura Precipitação Vento Pressão Humidade
00:00 +17°C° 0 mm 2 m/s 738 mmHg 73%
01:00 +17°C° 0 mm 2 m/s 739 mmHg 75%
02:00 +17°C° 0 mm 2 m/s 739 mmHg 77%
03:00 +16°C° 0 mm 2 m/s 739 mmHg 79%
04:00 +16°C° 0 mm 2 m/s 739 mmHg 80%
05:00 +16°C° 0 mm 2 m/s 739 mmHg 81%
06:00 +17°C° 0 mm 2 m/s 740 mmHg 77%
07:00 +18°C° 0 mm 3 m/s 740 mmHg 72%
08:00 +19°C° 0 mm 3 m/s 740 mmHg 68%
09:00 +20°C° 0 mm 4 m/s 741 mmHg 61%
10:00 +21°C° 0 mm 4 m/s 741 mmHg 54%
11:00 +23°C° 0 mm 4 m/s 741 mmHg 47%
12:00 +23°C° 0 mm 4 m/s 741 mmHg 45%
13:00 +25°C° 0 mm 4 m/s 741 mmHg 43%
14:00 +25°C° 0 mm 4 m/s 740 mmHg 41%
15:00 +25°C° 0 mm 4 m/s 740 mmHg 41%
16:00 +25°C° 0 mm 4 m/s 740 mmHg 41%
17:00 +25°C° 0 mm 3 m/s 740 mmHg 41%
18:00 +24°C° 0 mm 2 m/s 740 mmHg 47%
19:00 +21°C° 0 mm 2 m/s 740 mmHg 53%
20:00 +20°C° 0 mm 1 m/s 740 mmHg 59%
21:00 +19°C° 0 mm 1 m/s 740 mmHg 61%
22:00 +17°C° 0 mm 2 m/s 740 mmHg 63%
23:00 +17°C° 0 mm 2 m/s 740 mmHg 66%

4 Agosto, Quarta-feira

Tempo Temperatura Precipitação Vento Pressão Humidade
00:00 +16°C° 0 mm 2 m/s 740 mmHg 68%
01:00 +16°C° 0 mm 2 m/s 740 mmHg 71%
02:00 +16°C° 0 mm 2 m/s 740 mmHg 73%
03:00 +15°C° 0 mm 2 m/s 740 mmHg 74%
04:00 +15°C° 0 mm 2 m/s 740 mmHg 75%
05:00 +15°C° 0 mm 2 m/s 740 mmHg 76%
06:00 +16°C° 0 mm 3 m/s 740 mmHg 74%
07:00 +18°C° 0 mm 3 m/s 740 mmHg 71%
08:00 +19°C° 0 mm 4 m/s 740 mmHg 69%
09:00 +20°C° 0 mm 4 m/s 740 mmHg 68%
10:00 +21°C° 0 mm 4 m/s 739 mmHg 67%
11:00 +22°C° 0 mm 5 m/s 739 mmHg 66%
12:00 +22°C° 0.1 mm 4 m/s 739 mmHg 68%
13:00 +22°C° 0.1 mm 3 m/s 739 mmHg 70%
14:00 +22°C° 0.1 mm 3 m/s 739 mmHg 73%
15:00 +21°C° 1.5 mm 3 m/s 739 mmHg 78%
16:00 +20°C° 1.5 mm 3 m/s 738 mmHg 84%
17:00 +19°C° 1.5 mm 4 m/s 738 mmHg 90%
18:00 +18°C° 3.2 mm 4 m/s 738 mmHg 91%
19:00 +17°C° 3.2 mm 5 m/s 738 mmHg 93%
20:00 +16°C° 3.2 mm 5 m/s 738 mmHg 95%
21:00 +17°C° 0 mm 4 m/s 738 mmHg 95%
22:00 +17°C° 0 mm 3 m/s 738 mmHg 95%
23:00 +17°C° 0 mm 3 m/s 738 mmHg 95%
Mostrar mais

Necessitamos do seu Consentimento

A Meteoprog e os seus Fornecedores de Serviços podem armazenar e aceder a dados pessoais como cookies, identificadores do dispositivo ou outras tecnologias semelhantes existentes no seu dispositivo e processar estes dados para personalizar conteúdos e anúncios, assim como funcionalidades nas redes sociais e análise de tráfego.

  • Armazenar e/ou aceder a informações no seu dispositivo

    Os cookies, identificadores do dispositivo ou outras informações podem ser armazenados ou acedidos no seu dispositivo, para os fins acima indicados.

  • Anúncios e conteúdos personalizados, medição de anúncios e conteúdos, dados sobre o público-alvo e desenvolvimento de produtos

    Os anúncios e os conteúdos podem ser personalizados com base num perfil. Podem ser adicionados dados adicionais para uma maior personalização dos anúncios e dos conteúdos. A eficácia dos anúncios e dos conteúdos pode ser medida. Podem ser obtidas informações sobre o público que visualizou os anúncios e os conteúdos. Estes dados podem ser usados para desenvolver ou melhorar sistemas, softwares ou a experiência do utilizador.

Ao clicar em "Eu concordo”, permitirá o uso de cookies, identificadores do dispositivo e web beacons mencionados ou outras tecnologias semelhantes. As configurações do navegador do seu dispositivo podem ser alteradas.

Para certos fins, podem ser invocados interesses legítimos ao invés de consentimento. Pode ler mais informação sobre este assunto na nossa Política de Privacidade e Cookies.